Regional Weather Roundup
Issued by NWS Sioux Falls, SD

Home | Current Version | Previous Version | Graphics & Text | Print | Product List | Glossary On
Versions: 1 2 3 4 5 6 7 8 9 10 11 12 13 14 15 16 17 18 19 20 21 22 23 24 25 26 27 28 29 30 31 32 33 34 35 36 37 38 39 40 41 42 43 44 45 46 47 48 49 50
000
ASUS43 KFSD 271502
RWRFSD

WEATHER ROUNDUP FOR SE SOUTH DAKOTA/SW MINNESOTA/NW IOWA
NATIONAL WEATHER SERVICE SIOUX FALLS SD
900 AM CST FRI FEB 27 2015

NOTE: "FAIR" INDICATES FEW OR NO CLOUDS BELOW 12,000 FEET WITH NO
SIGNIFICANT WEATHER AND OR OBSTRUCTIONS TO VISIBILITY.


SDZ038>040-050-052>070-271600-
SOUTHEAST SOUTH DAKOTA

CITY           SKY/WX    TMP DP  RH WIND       PRES   REMARKS
CHAMBERLAIN    NOT AVBL
HURON          MOSUNNY   -9 -14  78 SE3       30.53R
MADISON        FAIR      -4  -6  92 W8        30.48F WCI -19
MITCHELL       SUNNY      2  -4  76 SW3       30.55S
SIOUX FALLS    SUNNY     -1  -6  79 W3        30.54R
WINNER         FAIR       6  -4  63 S9        30.43S WCI  -8
YANKTON        SUNNY      1  -2  85 CALM      30.59R
$$

MNZ071-072-080-081-089-090-097-098-271600-
SOUTHWEST MINNESOTA

CITY           SKY/WX    TMP DP  RH WIND       PRES   REMARKS
FAIRMONT       SUNNY     -2  -8  78 W6        30.54R WCI -14
JACKSON        SUNNY     -4  -9  77 W5        30.52S WCI -15
LUVERNE        SUNNY     -6  -9  84 CALM      30.55S
MARSHALL       SUNNY      0  -9  65 W7        30.54R WCI -13
MONTEVIDEO     SUNNY      0  -8  71 W5        30.55R WCI -10
PIPESTONE      SUNNY     -8 -11  84 SW5       30.49R WCI -19
REDWOOD FALLS  SUNNY     -3 -11  68 W6        30.56R WCI -15
WINDOM         SUNNY     -6  -9  84 CALM      30.53R
WORTHINGTON    SUNNY     21 -17  18 W7        30.53S WCI  13
$$

IAZ001>003-012>014-020>022-031-032-NEZ013-014-SDZ071-271600-
NORTHWEST IOWA

CITY           SKY/WX    TMP DP  RH WIND       PRES   REMARKS
DENISON        MOSUNNY   -8 -13  77 CALM      30.59R
ESTHERVILLE    SUNNY     -5 -10  79 W7        30.55R WCI -19
SIOUX CITY     SUNNY      1  -5  75 SW3       30.62R
SPENCER        SUNNY     -6 -12  75 SW5       30.56R WCI -17
$$

ABBREVIATIONS USED IN REMARKS
   TC - TEMPERATURE IN CELSIUS
  WCI - WIND CHILL INDEX
   HX - HEAT INDEX
  VSB - VISIBILITY



USA.gov is the U.S. government's official web portal to all federal, state and local government web resources and services.